Tracking 20232 objects as of 18-Jan-2020
HD Live streaming from Space Station
objects crossing your sky now

COSMOS 2251 DEB

Track COSMOS 2251 DEB now!
10-day predictions


NORAD ID: 37956
Int'l Code: 1993-036BPF
Perigee: 644.5 km
Apogee: 713.0 km
Inclination: 74.0 °
Period: 98.2 minutes
Semi major axis: 7049 km
RCS: 0.0022 m2 (small)
Launch date: June 16, 1993
Source: Commonwealth of Independent States (former USSR) (CIS)
Launch site: PLESETSK MISSILE AND SPACE COMPLEX (PKMTR)

Note: This is SATELLITE DEBRIS
aabbcc
Your satellite tracking list
Your tracking list is empty




NASA's NSSDC Master Catalog

Two Line Element Set (TLE):
1 37956U 93036BPF 20018.38301697 +.00000926 +00000-0 +16934-3 0  9992
2 37956 074.0455 013.3508 0048619 296.1699 063.4474 14.66709411483593
Source of the keplerian elements: AFSPC